Wind_Speed
111 112 113 112 111 108 105 102 99 95 92 89 87 85 84 84 84 85 87 89 92 95 98 100 102 104 105 107 108 109 111 112 113 114 115 116 117 118 118 119 120 120
115 117 117 115 112 109 105 101 97 93 90 88 86 85 84 84 84 85 86 88 91 94 97 99 102 105 106 108 110 111 113 114 115 116 118 118 119 120 121 121 122 122
120 120 119 116 113 109 104 99 95 92 89 87 86 86 85 85 85 86 86 88 90 92 95 99 102 104 107 109 111 113 114 116 117 118 119 121 122 122 123 124 124 125
124 123 120 117 112 108 103 98 95 92 90 89 88 88 88 88 88 89 89 90 91 92 94 97 101 104 107 109 112 114 116 117 119 120 121 123 124 125 125 126 127 127
126 124 120 116 111 106 102 98 96 94 93 92 91 91 91 92 92 92 93 93 94 95 96 97 99 102 105 108 111 114 116 118 120 122 123 125 126 127 128 128 129 130
127 123 119 114 109 105 101 99 98 96 95 94 94 93 93 93 94 94 95 95 96 97 98 99 100 102 104 106 109 112 115 117 120 122 124 125 127 128 129 130 131 132
126 122 117 111 107 104 102 100 99 97 96 95 94 93 93 93 93 94 94 95 96 97 98 99 100 102 103 105 107 109 111 114 116 119 121 123 125 127 129 130 131 132
123 118 113 108 105 103 101 100 98 97 95 94 94 93 93 93 93 93 93 93 94 95 95 96 98 99 101 102 104 106 108 110 112 114 116 119 121 123 125 127 129 130
119 114 109 106 103 101 99 97 96 95 94 94 93 93 93 93 93 93 93 93 93 93 94 94 95 96 97 98 99 101 103 105 107 109 111 114 116 118 120 122 124 125
116 111 106 103 101 99 97 95 94 94 93 93 93 93 93 93 93 93 93 93 93 93 93 93 93 94 94 95 96 97 98 100 101 103 105 107 109 111 113 115 117 119
113 108 105 102 99 97 95 94 93 93 93 93 93 93 93 93 93 93 93 93 93 93 93 93 93 94 94 94 94 95 96 97 98 100 101 103 104 106 107 109 110 112
111 107 104 101 99 97 95 94 94 94 93 93 93 93 93 92 92 92 92 93 93 93 93 93 94 94 94 94 94 95 95 96 97 98 100 101 102 103 105 105 106 108
110 107 104 101 99 97 96 95 95 94 94 93 93 92 92 92 92 92 92 92 93 93 94 94 94 95 95 95 95 95 96 96 97 98 99 100 101 102 103 104 104 105
110 107 104 101 99 98 97 96 95 95 94 93 93 92 91 91 91 91 92 92 93 93 93 94 94 95 95 95 95 96 96 97 97 98 98 99 100 101 102 102 102 103
109 106 104 102 100 99 97 96 95 95 94 93 93 92 91 91 91 91 92 92 93 93 94 94 95 95 95 95 96 96 96 97 97 98 98 99 100 100 101 101 101 101
108 106 104 102 101 99 97 96 95 94 93 93 93 92 91 91 91 91 92 92 92 93 93 94 95 95 95 95 96 96 96 96 96 97 97 98 98 99 99 99 100 100
108 106 104 102 100 98 97 95 94 93 93 92 92 91 91 90 90 90 91 91 91 92 93 93 94 95 95 95 94 94 94 93 94 94 95 96 96 96 97 97 98 98
107 106 104 102 100 98 96 95 94 93 92 91 91 90 90 89 89 89 89 89 90 90 91 92 93 93 93 93 92 92 91 91 91 92 93 94 94 94 95 95 96 97
107 105 103 101 99 97 96 94 93 92 91 90 90 89 89 88 88 88 88 88 88 89 89 90 91 91 91 90 90 90 89 89 89 90 91 91 92 92 92 93 94 94
106 104 102 100 98 96 95 93 92 91 90 89 89 88 88 87 87 86 86 86 86 87 87 88 89 89 88 88 87 87 87 87 87 87 88 88 88 89 89 90 91 92
106 104 101 99 97 96 94 93 92 91 90 89 88 87 86 86 85 85 85 85 85 85 86 86 87 87 86 85 85 85 84 84 84 85 85 85 86 86 87 88 89 90
105 103 101 99 97 95 94 93 91 90 89 88 87 86 85 84 84 84 84 84 84 84 85 85 86 85 84 84 84 83 83 82 82 82 82 83 83 83 84 85 86 87
105 103 101 99 97 95 94 92 91 89 88 87 86 85 84 84 83 83 83 83 84 84 84 84 84 84 83 83 83 82 81 80 80 80 80 81 81 81 82 83 84 85
105 103 101 99 97 95 93 92 90 89 87 86 85 84 83 83 82 82 82 83 83 83 83 83 83 83 83 83 82 81 80 79 79 79 79 79 79 79 80 81 82 82
104 102 100 98 96 94 93 91 90 88 86 85 84 83 82 82 82 82 82 82 83 83 82 82 82 82 82 82 82 81 80 79 78 78 78 78 77 78 78 79 79 80
101 100 98 96 95 93 92 90 88 87 85 84 83 82 81 81 81 81 82 82 83 83 82 82 81 81 82 82 81 80 79 78 77 76 76 75 75 76 77 77 78 78
Wind_Direction
311 310 310 308 306 304 302 300 298 295 293 290 288 285 282 279 276 273 270 267 265 264 262 261 260 260 260 260 260 260 260 260 260 260 260 260 260 260 260 260 260 259
311 311 310 308 306 304 302 299 297 294 292 289 287 285 282 279 276 273 271 268 266 264 263 262 261 260 260 259 259 259 259 259 259 260 260 260 260 260 260 260 260 260
312 311 310 308 306 304 301 299 296 293 291 289 287 285 283 280 278 275 272 270 267 265 263 262 261 260 260 260 259 259 259 259 259 259 259 259 260 260 260 260 260 260
312 311 309 308 305 303 300 298 295 293 291 289 287 285 283 281 279 277 274 272 270 267 265 263 262 261 260 260 259 259 259 259 259 259 259 259 259 260 260 260 260 260
312 310 309 307 304 302 299 297 295 293 291 289 287 285 283 281 279 278 276 274 272 270 268 266 264 263 261 261 260 260 260 260 260 260 260 260 260 260 260 260 260 261
311 310 308 305 303 301 299 297 295 293 292 290 288 286 284 282 280 278 277 275 273 271 270 268 267 265 264 263 262 261 261 261 261 261 261 261 261 261 261 261 261 261
310 308 306 304 302 300 298 297 295 294 292 290 288 286 284 283 281 279 277 276 274 273 271 270 269 268 267 266 265 264 263 263 262 262 262 262 262 262 262 262 262 262
309 307 305 303 301 299 298 297 295 294 292 290 289 287 285 283 282 280 279 277 276 274 273 272 271 270 269 268 267 266 266 265 265 264 264 264 263 263 263 263 263 263
307 305 303 301 300 299 297 296 295 293 292 290 289 287 286 284 283 282 280 279 278 277 276 274 273 272 271 270 269 268 268 267 267 266 265 265 265 264 264 264 264 264
306 304 302 301 299 298 297 295 294 293 291 290 289 287 286 285 284 283 282 281 280 279 278 277 276 275 273 272 271 270 270 269 268 268 267 266 266 266 265 265 265 265
305 303 302 301 299 298 297 296 294 293 292 290 289 288 287 286 285 284 283 282 281 281 280 279 278 277 276 275 273 272 272 271 270 269 268 268 267 266 266 265 265 265
304 303 302 301 299 298 297 296 295 293 292 291 290 289 288 287 286 285 284 283 282 281 281 280 279 278 277 276 275 274 273 272 271 271 270 269 268 268 267 266 266 265
304 303 302 301 300 299 298 297 295 294 293 291 290 289 288 287 286 285 284 283 282 282 281 280 279 278 278 277 276 275 274 273 273 272 271 271 270 269 269 268 268 267
304 303 302 301 300 299 298 297 296 294 293 292 291 289 288 287 286 285 284 283 282 282 281 280 279 279 278 277 276 276 275 274 274 273 273 272 271 271 270 270 269 269
304 303 302 301 300 299 298 297 296 295 293 292 291 289 288 287 286 285 284 283 282 282 281 280 280 279 278 278 277 276 276 275 275 275 274 274 273 273 273 272 272 271
303 303 302 301 300 300 298 297 296 294 293 292 290 289 288 287 286 285 284 283 282 281 280 280 279 278 278 277 277 276 276 276 276 275 275 275 274 274 274 274 274 273
303 303 302 301 301 299 298 297 295 294 293 291 290 289 288 287 285 284 283 282 281 280 280 279 278 278 277 277 276 276 276 276 275 275 275 275 275 274 274 274 274 274
304 303 302 301 300 299 298 297 295 294 292 291 290 289 288 286 285 284 283 282 281 280 279 279 278 278 277 277 277 276 276 276 275 275 275 275 274 274 274 274 274 274
304 303 302 301 300 299 297 296 295 293 292 291 290 289 288 287 286 285 284 283 282 281 280 279 278 278 278 277 277 277 276 276 275 275 274 274 274 274 274 273 273 273
303 302 301 300 299 298 297 296 294 293 292 292 291 290 289 288 287 286 284 283 282 281 281 280 279 279 278 278 278 277 277 276 275 275 274 274 274 274 273 273 273 272
303 302 301 300 299 298 297 296 295 294 293 293 292 291 290 288 287 286 285 284 283 282 282 281 281 280 280 279 279 278 278 277 276 276 275 275 274 274 273 273 272 272
302 301 300 300 299 298 297 296 296 295 294 293 292 291 290 289 289 288 287 286 285 285 284 283 283 282 282 281 281 280 279 278 278 277 277 276 275 274 274 273 272 271
302 301 300 300 299 298 297 297 296 295 294 293 293 292 291 291 290 289 288 288 287 286 286 285 285 284 284 283 282 281 281 280 279 279 278 277 277 276 275 274 273 272
302 301 300 300 299 298 298 297 296 295 294 294 293 293 292 291 291 290 289 289 288 287 287 286 286 285 285 284 283 283 282 282 281 280 280 279 278 278 276 275 274 273
301 301 300 299 299 298 297 296 296 295 295 294 293 293 292 292 291 290 290 289 289 288 288 287 287 286 286 285 284 284 283 283 282 282 281 281 280 279 278 277 276 275
300 300 299 299 298 298 297 296 296 295 294 294 293 293 292 292 291 291 291 290 290 289 289 288 288 287 287 286 285 285 284 284 283 283 282 281 281 280 279 278 278 277
Height
10535 10530 10524 10519 10514 10510 10505 10502 10498 10493 10490 10486 10484 10481 10479 10477 10475 10473 10471 10469 10468 10466 10465 10463 10462 10461 10459 10458 10457 10457 10456 10455 10454 10453 10453 10453 10452 10452 10453 10453 10453 10454
10519 10513 10507 10502 10497 10492 10487 10484 10480 10476 10472 10469 10466 10464 10461 10459 10457 10455 10454 10452 10450 10449 10447 10446 10444 10443 10442 10441 10439 10438 10437 10437 10436 10435 10434 10434 10434 10434 10434 10434 10434 10435
10503 10497 10491 10485 10480 10475 10470 10466 10462 10459 10455 10451 10448 10446 10443 10441 10440 10438 10436 10435 10433 10431 10430 10428 10426 10425 10423 10422 10421 10420 10419 10418 10417 10416 10416 10415 10415 10415 10415 10415 10415 10415
10488 10481 10474 10468 10463 10457 10453 10449 10445 10441 10438 10434 10431 10428 10426 10424 10422 10420 10418 10417 10415 10414 10412 10410 10408 10406 10405 10404 10402 10401 10400 10399 10398 10397 10396 10396 10395 10395 10395 10395 10395 10395
10472 10465 10458 10452 10446 10441 10436 10432 10428 10424 10420 10417 10413 10410 10408 10405 10403 10402 10400 10398 10397 10395 10393 10392 10390 10389 10387 10385 10384 10383 10381 10380 10379 10378 10377 10376 10375 10375 10375 10375 10375 10375
10455 10448 10441 10435 10429 10424 10419 10415 10411 10407 10403 10400 10396 10393 10390 10387 10385 10383 10381 10380 10378 10376 10375 10373 10372 10370 10369 10367 10366 10364 10363 10362 10361 10360 10358 10357 10355 10355 10354 10354 10355 10355
10440 10432 10425 10419 10413 10408 10403 10398 10394 10390 10386 10382 10379 10375 10372 10369 10366 10364 10362 10360 10359 10357 10356 10354 10353 10352 10351 10350 10348 10347 10346 10345 10344 10342 10341 10340 10338 10336 10335 10334 10335 10335
10425 10418 10410 10404 10399 10393 10388 10383 10378 10374 10369 10366 10362 10358 10355 10351 10349 10347 10344 10342 10341 10339 10338 10337 10336 10334 10333 10332 10331 10329 10328 10327 10326 10325 10324 10322 10321 10319 10317 10316 10315 10316
10409 10402 10395 10390 10384 10379 10374 10369 10364 10359 10354 10350 10346 10342 10338 10335 10333 10330 10328 10326 10324 10322 10321 10320 10319 10317 10316 10315 10314 10313 10312 10310 10309 10307 10306 10304 10302 10301 10299 10298 10297 10297
10390 10384 10379 10374 10369 10365 10360 10355 10349 10344 10339 10335 10331 10327 10323 10320 10318 10315 10313 10310 10308 10306 10305 10303 10302 10301 10299 10298 10298 10297 10296 10294 10292 10290 10289 10287 10286 10284 10282 10281 10280 10279
10373 10368 10363 10358 10354 10349 10345 10340 10335 10330 10325 10320 10316 10313 10309 10306 10303 10301 10298 10295 10293 10290 10288 10287 10285 10284 10282 10281 10281 10280 10279 10278 10276 10274 10271 10270 10268 10267 10265 10264 10263 10262
10356 10351 10347 10342 10338 10333 10329 10325 10320 10315 10311 10306 10302 10299 10295 10292 10289 10286 10283 10280 10277 10275 10272 10270 10268 10266 10265 10264 10264 10263 10261 10260 10258 10256 10254 10252 10250 10248 10247 10247 10246 10246
10340 10335 10330 10326 10322 10318 10313 10309 10304 10300 10296 10291 10288 10284 10281 10278 10275 10271 10268 10265 10262 10259 10257 10254 10252 10250 10249 10247 10247 10245 10243 10242 10240 10238 10237 10234 10232 10230 10229 10228 10229 10229
10324 10319 10314 10310 10306 10302 10298 10293 10289 10284 10280 10276 10273 10269 10266 10264 10260 10257 10253 10249 10247 10244 10241 10239 10236 10234 10232 10231 10230 10228 10226 10225 10223 10221 10219 10217 10214 10212 10211 10210 10211 10211
10309 10303 10299 10295 10291 10287 10283 10278 10274 10269 10265 10261 10257 10254 10252 10249 10246 10242 10238 10235 10232 10229 10226 10223 10220 10217 10216 10215 10213 10212 10210 10208 10206 10204 10202 10200 10197 10195 10194 10193 10193 10193
10294 10289 10284 10280 10276 10272 10268 10264 10259 10254 10250 10246 10242 10239 10237 10234 10231 10227 10224 10220 10218 10214 10211 10207 10204 10202 10200 10199 10197 10196 10195 10193 10191 10189 10186 10184 10182 10180 10178 10177 10175 10176
10280 10275 10270 10265 10261 10256 10252 10248 10244 10240 10235 10232 10228 10225 10222 10219 10216 10213 10209 10206 10203 10199 10196 10192 10188 10186 10185 10183 10182 10181 10181 10180 10177 10175 10171 10169 10168 10166 10164 10162 10160 10159
10265 10260 10255 10250 10245 10240 10236 10233 10228 10224 10220 10217 10214 10211 10207 10204 10201 10198 10194 10191 10188 10184 10181 10177 10173 10171 10169 10168 10167 10166 10166 10166 10164 10160 10157 10155 10153 10152 10150 10148 10146 10144
10250 10245 10239 10234 10229 10225 10221 10217 10213 10209 10205 10202 10199 10196 10192 10189 10186 10183 10179 10176 10173 10169 10166 10162 10158 10156 10155 10154 10153 10152 10151 10151 10149 10146 10143 10141 10139 10138 10136 10134 10132 10129
10234 10229 10224 10219 10214 10209 10205 10201 10197 10194 10190 10187 10184 10180 10177 10174 10170 10167 10164 10161 10157 10154 10151 10147 10143 10141 10141 10140 10139 10138 10137 10136 10134 10131 10128 10127 10125 10124 10122 10119 10117 10114
10218 10213 10208 10204 10199 10194 10190 10186 10182 10179 10175 10172 10169 10165 10162 10158 10155 10152 10149 10145 10142 10139 10136 10133 10129 10127 10127 10126 10124 10123 10122 10121 10119 10116 10114 10112 10111 10109 10108 10105 10102 10099
10202 10197 10193 10189 10184 10180 10176 10171 10168 10164 10161 10157 10154 10150 10147 10144 10140 10137 10134 10131 10127 10124 10121 10118 10114 10112 10111 10111 10108 10107 10107 10106 10104 10102 10099 10097 10096 10094 10092 10090 10086 10084
10186 10182 10178 10173 10169 10165 10161 10157 10153 10150 10146 10143 10139 10137 10133 10129 10126 10123 10119 10116 10112 10109 10107 10103 10099 10097 10096 10094 10093 10091 10091 10091 10089 10087 10085 10083 10081 10079 10077 10074 10071 10069
10171 10166 10163 10158 10155 10151 10147 10143 10140 10136 10133 10130 10126 10123 10119 10115 10112 10109 10105 10101 10098 10095 10093 10090 10086 10083 10080 10078 10077 10076 10076 10075 10074 10072 10070 10068 10066 10064 10061 10059 10056 10054
10157 10153 10149 10145 10141 10138 10133 10130 10126 10122 10119 10116 10113 10110 10106 10102 10099 10095 10091 10087 10084 10081 10079 10076 10073 10069 10066 10064 10061 10061 10061 10061 10059 10057 10055 10053 10052 10049 10046 10043 10041 10040
10145 10140 10136 10132 10128 10124 10120 10116 10112 10109 10106 10103 10099 10096 10093 10089 10086 10082 10079 10074 10069 10067 10064 10062 10060 10056 10051 10049 10047 10047 10047 10046 10045 10043 10041 10040 10038 10035 10032 10029 10027 10026